Temp_Advection
nan nan nan nan nan nan nan nan nan nan nan nan nan nan nan nan nan nan nan nan nan nan nan nan nan nan nan nan nan nan nan nan nan nan nan nan nan nan nan nan nan nan nan nan nan
nan -0 -0 -0 0 0 -0 -0 -0 0 0 0 0 0 0 0 -0 -0 -0 0 0 0 0 0 0 -0 -0 -1 -1 -1 -0 0 -0 -1 -0 -0 -0 -0 -1 -1 -1 -0 -0 -0 nan
nan -0 -0 -0 -0 0 -0 -0 -0 0 0 0 0 0 0 0 -0 -0 0 0 0 0 0 0 0 -0 -1 -1 -1 -1 -0 0 -1 -1 -0 -1 -1 -0 -0 -0 -0 -0 -0 -0 nan
nan -0 -0 -0 -0 -0 -0 -0 0 0 0 0 0 0 0 -0 -0 0 0 0 0 0 0 0 -0 -0 -1 -0 -0 -0 -0 -1 -0 -0 -0 -1 -1 -1 -0 -0 -0 -0 -0 -0 nan
nan -0 -0 -0 -0 0 -0 -0 -0 0 0 0 0 0 -0 -0 -0 0 0 -0 0 0 0 0 -0 -1 -0 -0 -1 -0 -0 -1 -0 -0 -0 -1 -1 -0 -0 -0 -0 -0 -0 -0 nan
nan -0 0 -0 -0 -0 -0 0 0 0 0 0 0 0 -0 -1 0 0 0 0 0 0 0 -0 -0 -1 -0 -0 -1 -1 -1 -1 -0 -0 -0 -0 -0 -0 -0 -0 -0 -0 -0 -0 nan
nan 0 0 -0 -0 -0 0 0 0 0 0 0 0 -0 -1 -0 0 0 0 0 -0 -0 0 0 0 0 -1 -1 -0 -1 -0 -0 -0 -0 -0 -1 -0 -0 -0 -0 -0 -0 -0 -0 nan
nan 0 0 0 -0 0 0 0 0 0 0 0 0 -0 -0 0 0 0 0 -0 0 0 0 -0 -0 -1 -1 -1 -0 -0 -1 -0 -0 -0 -0 -0 -0 -0 0 -0 -0 -0 -0 -0 nan
nan 0 0 0 -0 0 0 0 0 0 0 0 0 -0 -0 0 0 -0 0 0 0 0 -0 -0 -1 -1 -0 -0 -0 -0 0 -1 0 -0 -0 0 -0 0 0 0 -0 -0 -0 -0 nan
nan 0 0 0 0 0 0 0 0 0 -0 -0 -0 -0 -0 -0 0 0 0 0 0 0 0 -0 -0 0 0 0 0 0 0 -0 -1 0 0 1 -1 0 0 0 -0 -0 -0 -0 nan
nan 0 0 0 0 0 0 0 0 -0 -1 -0 -0 -0 -0 0 0 0 0 0 0 0 -0 0 -1 -0 -0 0 0 -0 -0 -0 -0 -0 -0 0 -1 -0 0 0 0 -0 -0 -0 nan
nan 0 0 0 0 0 0 0 -0 -0 0 0 -0 -0 0 0 -0 -0 0 -0 0 0 0 -1 -0 0 -0 -0 -0 0 0 -0 -0 -0 0 0 0 -0 -0 0 -0 -0 -0 0 nan
nan 0 0 0 0 0 -0 0 -0 -0 -0 -0 0 -0 0 -0 -0 -0 0 -0 -0 -1 -1 -0 0 -0 0 -0 -0 -0 -0 -0 0 -0 0 0 0 -0 0 0 -0 -0 0 -0 nan
nan 0 0 0 0 0 0 0 0 -0 -0 0 0 -0 0 -0 -0 0 -0 -0 -0 -0 -0 -0 0 -0 0 -0 -0 -0 -0 -0 0 -0 0 0 0 -0 -0 0 -0 -0 -0 -0 nan
nan 0 0 0 0 0 -0 0 -0 -0 0 -0 -0 -0 0 -0 0 0 0 0 -0 0 0 -0 -0 -0 -0 -0 -0 -0 0 -0 0 0 0 0 0 -0 -0 -0 0 -0 -0 -0 nan
nan -0 0 -0 -0 0 -0 -0 -0 0 -0 0 0 0 -0 -0 0 0 -0 -0 -0 -0 -1 -0 -0 -0 -0 -0 -0 0 0 -0 0 0 0 -0 -0 0 0 0 -0 -0 -0 -0 nan
nan -0 0 0 -0 -0 -0 -0 -0 0 0 -0 0 0 -0 -0 -0 -0 -0 -0 -0 -0 0 -0 -0 -0 0 -0 0 -0 0 -0 0 -0 -0 -0 0 -0 -0 -0 -0 -0 -0 -0 nan
nan 0 0 -0 -0 -0 -0 -0 -0 -0 -0 -0 0 -0 -0 0 0 0 0 -0 -1 -0 -0 -0 0 -0 -0 -0 -0 -0 -0 -0 -0 0 0 -0 0 -0 -0 -0 -0 -0 -0 -0 nan
nan 0 -0 -0 -0 -0 -0 0 -0 -0 -0 -0 -0 0 -0 -0 0 0 -0 -0 -0 -0 -0 -0 -0 -0 -0 -0 0 0 -0 -0 0 0 -0 -0 -1 -0 0 -0 0 -0 -0 -0 nan
nan 0 -0 -0 -0 -0 0 -0 -0 -0 -0 -0 0 -0 -0 -0 -0 -0 -0 -0 -0 -0 -0 0 -0 0 -0 -0 -0 -0 0 0 0 -0 -0 -0 -0 -0 0 0 -0 -0 -0 -0 nan
nan -0 -0 0 0 0 -0 -0 -0 -0 -0 -0 -0 -0 -0 -0 -0 -0 -0 -0 -0 -0 -0 -0 0 0 -0 0 -0 0 -0 0 -0 0 0 -0 0 -0 -0 0 0 -0 -0 -0 nan
nan 0 0 0 0 -0 -0 -0 -0 -0 0 0 -0 -0 -0 -0 -0 -0 -0 -0 -0 -0 -0 -0 -0 -0 -0 -0 -0 -0 -0 0 0 -0 0 0 0 -0 -0 -0 -0 -0 -0 -0 nan
nan 0 0 0 -0 -0 -0 -0 0 0 -0 -0 -0 -0 -0 -0 0 -0 -1 -0 -0 -0 -0 -0 -0 0 0 0 0 -0 0 0 0 -0 0 0 0 0 -0 -0 -0 -0 -1 -1 nan
nan 0 0 -0 -0 -0 -0 -0 -0 -0 0 -0 0 -0 -0 -0 -0 -0 -0 -0 -0 -0 -0 0 -0 -0 -0 0 -0 0 0 0 0 0 -0 -0 0 0 0 -0 -0 -1 -1 -0 nan
nan -0 0 0 -0 0 -0 -0 -0 -0 0 -0 0 -0 -0 -0 0 -0 -0 -0 -0 0 -0 -0 -0 -0 -0 -0 0 0 0 0 0 -0 -0 -0 0 -0 -0 0 -1 -1 -1 -0 nan
nan -0 -0 0 0 -0 0 0 -0 -0 0 0 0 0 -0 -0 -0 -0 0 0 -0 -0 -0 -0 -0 -0 0 0 0 0 -0 0 0 0 -0 0 0 -0 -0 -0 -1 -1 -1 -0 nan
nan nan nan nan nan nan nan nan nan nan nan nan nan nan nan nan nan nan nan nan nan nan nan nan nan nan nan nan nan nan nan nan nan nan nan nan nan nan nan nan nan nan nan nan nan
Wind_Speed
8 10 10 9 8 9 11 13 15 15 15 15 16 18 20 19 17 12 14 11 10 10 14 14 7 11 9 9 10 3 7 7 5 7 9 15 8 14 22 30 28 18 19 13 11
8 9 9 9 8 10 14 16 16 17 18 19 19 19 18 17 16 17 13 9 9 7 13 10 9 6 11 15 10 9 5 6 10 15 11 18 16 13 14 20 21 18 15 13 13
7 8 9 9 10 14 17 17 19 18 16 15 16 12 9 7 6 12 10 9 9 9 12 8 7 11 13 16 11 7 5 12 16 19 20 21 21 7 17 10 14 14 12 12 13
7 9 10 11 14 17 18 18 16 10 6 5 4 5 5 6 4 9 8 9 9 12 8 4 2 6 7 8 15 15 14 15 15 18 15 11 13 18 24 14 10 11 11 12 15
7 9 12 13 17 18 17 13 10 9 10 11 13 10 8 12 9 7 9 12 15 11 10 10 13 15 7 15 23 15 16 16 16 18 17 17 17 16 15 11 9 10 11 14 15
7 11 14 16 18 17 15 12 13 14 12 11 9 7 8 17 10 10 11 11 13 10 14 16 20 23 12 10 10 16 22 22 18 14 14 14 12 5 8 8 8 8 10 11 13
10 15 16 18 18 16 13 14 15 12 13 15 17 19 19 10 10 10 13 14 13 10 16 12 4 4 9 17 29 28 13 14 12 9 6 19 7 7 8 6 6 7 8 9 12
14 18 18 19 18 15 13 15 10 10 11 11 11 14 9 10 8 8 10 12 14 11 10 12 15 15 9 27 14 6 8 5 7 11 10 2 4 8 7 6 5 5 8 10 13
17 19 19 19 17 14 17 12 10 10 9 7 7 7 6 8 8 10 8 8 8 13 13 13 17 19 19 8 5 6 4 6 5 13 3 9 4 10 7 5 4 5 7 9 11
18 19 20 18 15 19 13 13 13 9 6 6 7 13 6 7 10 9 5 7 4 2 4 1 4 6 2 4 4 7 6 4 8 2 7 6 8 10 7 5 3 3 6 8 11
19 21 20 22 19 15 16 9 4 7 21 12 9 14 7 4 13 8 8 5 3 6 4 2 6 7 7 6 6 7 6 3 4 3 2 3 7 8 9 6 4 3 6 8 10
20 21 22 17 16 14 4 4 12 9 13 12 13 13 10 7 4 10 10 4 3 5 4 6 6 6 8 2 5 5 6 3 3 5 2 5 6 9 11 6 5 4 6 8 11
20 19 16 16 12 4 2 7 16 8 4 6 9 9 9 10 8 14 9 8 6 9 11 8 3 4 5 7 7 2 3 5 5 4 6 6 5 10 10 8 6 4 4 8 10
17 16 17 12 2 6 11 10 4 2 3 4 5 7 9 4 4 14 9 4 3 6 6 5 1 4 3 5 6 3 5 5 7 2 3 5 4 6 9 7 9 6 3 9 13
16 14 14 4 8 2 5 1 4 2 3 3 4 5 8 7 2 10 11 8 7 4 3 2 5 7 6 4 5 3 2 4 4 5 5 7 2 2 9 6 7 7 9 14 13
15 13 12 3 2 5 4 5 4 3 3 3 2 1 4 10 5 3 4 6 1 2 10 4 2 3 4 7 6 11 6 9 4 3 3 6 3 5 3 3 6 12 9 11 13
13 13 10 4 4 6 4 7 3 2 2 3 3 2 5 5 4 5 6 8 4 3 2 5 4 4 7 5 4 7 8 2 2 1 2 6 3 4 7 8 10 4 6 10 14
12 13 10 5 2 5 4 3 2 2 5 1 1 3 3 5 2 2 3 4 10 6 3 3 2 6 7 4 3 5 4 3 4 4 5 6 2 3 9 10 5 4 8 11 16
11 9 8 6 4 5 1 1 4 6 3 2 3 4 3 3 2 2 6 4 5 8 5 5 3 2 4 3 4 5 4 2 4 7 4 4 5 3 7 8 3 9 10 13 15
9 4 4 4 5 6 2 4 3 4 4 3 3 4 3 4 2 2 3 3 3 6 7 4 3 1 3 2 0 2 3 1 1 5 5 5 3 3 7 4 8 9 10 13 13
10 2 2 7 7 2 2 4 5 4 5 5 4 2 4 3 5 3 4 2 5 5 5 4 2 1 0 2 3 1 2 1 1 1 2 5 3 4 7 5 0 6 10 12 11
4 1 6 10 2 3 3 4 4 3 4 3 3 6 5 5 4 3 3 5 4 4 4 3 3 4 4 3 3 2 2 1 1 1 3 4 3 9 9 6 4 9 9 10 12
3 3 7 2 2 3 4 4 5 2 4 3 2 5 3 3 1 3 5 3 3 5 4 6 1 3 1 0 0 4 4 0 2 1 5 1 4 10 10 4 9 7 8 11 13
4 2 2 2 2 7 5 4 4 3 3 4 3 0 2 2 2 3 3 2 2 3 2 2 3 3 3 2 3 4 5 6 4 2 4 6 3 7 4 5 7 11 11 10 12
1 1 3 3 2 5 2 4 4 3 2 2 1 3 2 2 3 3 4 4 2 0 1 2 3 4 8 11 7 6 7 7 9 9 4 5 8 6 6 6 9 11 9 10 13
2 2 4 3 9 11 2 5 5 3 1 3 1 4 2 2 3 3 2 3 4 3 2 3 3 2 5 2 2 6 8 8 9 8 11 13 7 7 4 7 9 9 7 11 12
4 4 3 3 5 2 2 4 5 11 2 3 3 4 4 2 4 5 6 5 4 1 5 2 2 3 5 2 7 7 3 10 5 6 4 4 3 3 5 7 5 4 5 8 12
Wind_Direction
97 98 104 111 107 111 116 116 117 112 107 108 104 104 93 82 68 51 59 43 45 70 45 43 44 82 48 41 29 30 82 59 31 116 140 123 100 76 82 78 70 75 76 68 52
104 104 107 107 111 118 123 123 116 111 110 110 110 106 105 94 85 56 43 45 47 58 80 75 54 89 67 42 28 62 72 40 73 98 112 113 87 92 82 71 74 74 65 59 47
120 119 121 118 118 124 126 124 122 114 106 106 114 108 97 72 58 16 33 49 57 58 64 63 71 88 71 50 31 35 98 78 81 92 100 92 61 81 120 64 65 70 65 54 42
136 134 131 124 125 128 128 125 121 110 105 98 120 106 67 25 70 357 35 45 62 61 33 74 105 43 38 84 86 109 101 111 106 110 100 92 90 72 81 97 93 79 64 50 44
147 142 137 128 129 129 127 124 113 104 97 98 105 99 70 82 38 33 50 47 40 32 45 54 114 87 96 102 83 82 101 92 101 97 99 97 82 97 98 105 94 75 58 48 40
157 149 141 136 133 127 123 115 107 101 96 92 71 67 83 74 39 35 46 49 68 49 81 72 88 103 93 29 54 117 107 110 115 115 128 115 124 94 114 117 97 76 59 46 37
151 146 144 140 134 128 122 116 114 91 94 98 90 86 85 69 28 56 39 49 49 79 75 72 106 332 106 87 118 122 112 119 139 143 134 132 102 104 133 124 107 90 70 48 34
146 143 142 140 135 128 123 122 107 92 104 99 92 78 79 56 58 63 83 44 52 70 87 96 84 89 86 125 149 114 159 159 180 155 181 205 113 138 156 143 124 91 66 41 27
140 140 140 138 136 128 125 111 99 93 94 91 53 101 79 23 32 47 77 73 47 55 85 77 90 106 131 158 184 178 278 123 166 193 200 195 127 149 167 168 125 74 59 33 21
136 139 139 138 138 132 116 101 86 52 39 63 31 115 61 28 42 33 45 53 80 71 92 130 143 148 257 354 19 335 330 84 120 110 196 242 115 151 177 185 150 73 46 24 17
139 139 138 132 137 135 129 122 97 48 61 69 55 88 66 28 36 34 47 31 338 7 108 299 63 40 6 344 319 285 325 11 112 127 309 233 151 159 174 199 194 60 27 9 7
138 138 141 141 146 147 57 331 107 135 75 66 69 67 60 22 1 41 53 6 342 97 167 62 62 14 299 313 286 310 325 73 114 135 184 188 204 147 172 185 81 25 1 347 2
139 142 145 145 146 161 270 151 137 140 125 54 59 49 32 44 42 6 36 9 15 68 64 67 36 320 325 38 355 289 15 12 317 155 209 290 253 147 171 144 168 216 265 358 1
146 149 149 141 104 115 131 134 174 290 190 39 23 21 359 74 54 19 49 11 53 62 70 72 49 307 252 87 359 292 22 310 294 149 299 177 300 166 161 186 183 230 48 10 13
158 159 162 148 119 136 167 103 328 293 187 10 47 47 37 76 320 6 38 64 43 37 237 56 49 351 38 7 341 336 320 284 301 281 275 187 264 93 143 190 195 115 41 17 1
168 168 176 186 185 185 180 329 327 235 92 103 52 330 169 55 37 34 46 53 63 67 58 96 136 47 342 301 259 283 257 221 226 231 251 127 197 187 148 192 100 57 28 5 356
175 179 179 160 219 213 240 338 259 3 251 99 55 35 89 25 60 28 69 44 32 337 128 165 77 124 344 282 198 326 324 29 303 203 233 145 256 70 104 70 75 47 19 2 357
180 189 203 233 289 206 263 273 357 8 49 66 163 113 61 347 85 33 233 78 37 346 309 328 210 351 356 47 321 311 355 49 308 320 285 122 261 158 104 114 130 33 20 4 357
180 203 225 236 234 195 306 303 20 31 22 135 191 258 121 125 327 240 54 45 40 14 19 1 86 149 57 10 349 341 49 345 283 255 270 172 97 88 147 161 160 29 19 11 1
152 158 228 210 173 177 265 88 84 42 342 297 359 336 45 33 257 348 48 354 53 37 342 28 286 13 109 257 304 356 294 311 261 318 303 311 125 179 182 163 39 6 27 6 355
134 175 200 154 144 266 26 59 104 53 26 4 16 101 50 53 358 56 55 68 35 1 316 347 211 156 139 200 34 262 215 230 14 202 261 301 252 71 99 91 290 17 31 3 3
111 187 162 151 141 5 72 58 105 103 46 44 29 26 35 11 41 72 69 44 19 342 6 57 326 280 76 74 2 326 339 282 207 347 260 255 271 116 139 182 78 48 19 15 4
88 72 162 155 145 105 141 88 61 117 33 33 76 24 352 65 108 28 85 100 41 28 24 360 221 302 230 339 269 245 169 230 351 66 242 184 287 173 194 121 56 34 38 20 2
133 116 123 330 39 121 144 136 107 62 83 59 120 227 191 143 9 137 132 129 51 54 45 16 298 249 259 310 171 260 183 188 208 250 305 252 324 194 166 73 40 43 35 16 357
126 88 145 163 196 134 85 132 127 133 73 195 135 294 328 141 172 135 92 141 160 145 268 330 264 356 287 282 283 256 258 251 208 235 263 277 323 61 83 52 44 38 27 9 354
132 151 104 78 123 116 154 185 138 120 78 159 268 94 4 40 22 48 141 196 97 172 270 146 272 309 282 69 252 259 233 238 244 260 261 272 294 98 86 42 31 34 30 4 341
184 155 117 147 168 208 142 144 137 128 62 65 65 125 112 88 70 80 75 82 83 40 196 230 304 358 268 229 292 293 234 194 205 208 224 246 128 106 56 31 37 63 18 351 334
Height
1526 1526 1527 1529 1530 1531 1532 1534 1535 1536 1537 1538 1539 1541 1542 1542 1542 1544 1542 1544 1542 1541 1540 1539 1540 1540 1541 1539 1538 1540 1551 1568 1570 1570 1584 1585 1588 1593 1597 1596 1598 1602 1607 1609 1609
1527 1528 1529 1530 1532 1533 1535 1536 1538 1539 1540 1542 1543 1543 1543 1544 1546 1545 1546 1545 1544 1543 1541 1542 1542 1542 1543 1544 1544 1543 1565 1573 1571 1574 1581 1587 1591 1595 1599 1601 1604 1607 1609 1609 1608
1529 1530 1531 1533 1534 1536 1537 1539 1541 1542 1544 1545 1546 1546 1546 1546 1548 1550 1549 1547 1546 1545 1544 1544 1545 1546 1548 1550 1553 1559 1573 1578 1581 1585 1588 1591 1595 1598 1597 1605 1608 1608 1609 1609 1608
1530 1532 1533 1535 1537 1539 1541 1542 1544 1545 1546 1547 1547 1548 1548 1548 1555 1553 1551 1549 1548 1546 1546 1548 1548 1549 1554 1558 1561 1570 1577 1581 1588 1590 1591 1595 1598 1602 1601 1608 1609 1610 1611 1610 1608
1531 1533 1535 1538 1540 1541 1543 1545 1546 1547 1548 1548 1549 1550 1550 1552 1555 1554 1552 1551 1551 1551 1549 1548 1549 1553 1558 1565 1568 1573 1581 1586 1590 1592 1595 1597 1600 1602 1607 1609 1610 1611 1611 1611 1610
1532 1534 1537 1540 1542 1544 1546 1547 1549 1550 1550 1551 1552 1552 1554 1553 1557 1556 1554 1553 1553 1553 1552 1552 1553 1556 1561 1565 1566 1578 1584 1590 1594 1594 1598 1598 1602 1602 1610 1610 1610 1611 1612 1612 1611
1533 1536 1539 1542 1544 1547 1549 1551 1552 1552 1553 1554 1555 1555 1554 1560 1560 1558 1558 1556 1556 1556 1555 1556 1558 1558 1564 1573 1578 1581 1587 1592 1594 1594 1597 1597 1602 1607 1609 1611 1611 1611 1611 1612 1612
1535 1538 1542 1544 1547 1550 1552 1554 1554 1555 1556 1556 1557 1556 1559 1561 1560 1560 1560 1560 1559 1557 1557 1559 1560 1561 1565 1574 1579 1579 1585 1591 1591 1593 1595 1597 1603 1608 1609 1609 1610 1610 1612 1612 1612
1538 1541 1545 1547 1550 1553 1555 1557 1557 1558 1558 1558 1558 1558 1563 1564 1562 1561 1561 1562 1562 1561 1561 1561 1560 1566 1573 1572 1578 1579 1577 1584 1590 1589 1590 1593 1601 1605 1606 1608 1610 1611 1611 1611 1612
1541 1544 1547 1550 1553 1556 1558 1559 1559 1560 1559 1559 1559 1561 1565 1567 1564 1563 1563 1562 1563 1563 1563 1563 1563 1565 1566 1572 1585 1579 1573 1568 1585 1589 1589 1589 1602 1603 1606 1608 1609 1610 1611 1611 1610
1545 1548 1551 1553 1556 1558 1560 1561 1562 1564 1561 1564 1566 1565 1567 1567 1567 1565 1564 1563 1563 1562 1563 1562 1570 1579 1577 1576 1576 1574 1570 1571 1584 1588 1589 1586 1592 1600 1605 1607 1608 1609 1609 1610 1610
1549 1551 1554 1556 1559 1560 1561 1562 1560 1566 1568 1568 1568 1568 1568 1568 1568 1566 1565 1565 1562 1566 1564 1569 1582 1579 1575 1573 1572 1570 1572 1580 1584 1586 1590 1586 1590 1596 1602 1605 1606 1608 1610 1609 1608
1552 1554 1557 1559 1562 1562 1562 1562 1562 1564 1565 1571 1570 1570 1571 1571 1572 1570 1569 1568 1567 1569 1572 1574 1581 1578 1575 1577 1576 1569 1577 1583 1586 1586 1586 1588 1588 1595 1600 1602 1605 1607 1606 1608 1607
1555 1557 1559 1562 1565 1563 1564 1564 1564 1565 1564 1574 1573 1574 1574 1572 1575 1574 1572 1574 1571 1574 1574 1579 1580 1578 1576 1580 1582 1580 1581 1581 1581 1586 1590 1586 1597 1592 1596 1600 1603 1605 1606 1606 1607
1557 1559 1561 1564 1563 1566 1566 1565 1565 1566 1577 1577 1575 1576 1575 1575 1578 1576 1574 1574 1575 1575 1576 1588 1584 1583 1582 1586 1584 1581 1580 1579 1580 1583 1585 1588 1597 1591 1592 1600 1601 1603 1605 1606 1604
1559 1561 1563 1564 1565 1565 1566 1565 1566 1571 1589 1577 1577 1576 1575 1577 1579 1578 1577 1576 1577 1575 1578 1584 1585 1586 1588 1585 1582 1579 1577 1577 1577 1582 1590 1582 1584 1599 1598 1595 1598 1603 1604 1603 1602
1560 1562 1564 1565 1566 1565 1566 1566 1570 1574 1576 1579 1578 1576 1577 1580 1580 1581 1581 1583 1585 1586 1580 1582 1585 1587 1587 1583 1582 1580 1578 1586 1589 1594 1586 1573 1583 1597 1596 1598 1601 1602 1602 1601 1600
1561 1563 1565 1565 1565 1566 1566 1566 1571 1573 1575 1579 1578 1577 1579 1582 1583 1581 1578 1586 1588 1588 1583 1586 1591 1590 1590 1592 1594 1589 1587 1598 1603 1595 1587 1576 1584 1599 1597 1599 1601 1601 1601 1601 1601
1562 1564 1565 1565 1566 1566 1568 1568 1583 1576 1576 1577 1579 1576 1581 1582 1583 1580 1589 1594 1598 1595 1597 1594 1592 1592 1592 1592 1593 1588 1596 1593 1597 1586 1591 1574 1597 1598 1597 1599 1599 1599 1599 1601 1600
1562 1565 1565 1565 1566 1567 1568 1577 1579 1582 1581 1579 1579 1580 1578 1583 1582 1580 1586 1599 1598 1600 1599 1595 1597 1590 1593 1593 1593 1593 1593 1598 1598 1603 1599 1574 1577 1591 1598 1595 1598 1599 1599 1597 1596
1564 1566 1566 1566 1568 1568 1572 1580 1582 1585 1584 1583 1582 1582 1584 1585 1585 1585 1593 1601 1600 1600 1599 1597 1595 1594 1593 1592 1593 1595 1592 1591 1596 1597 1605 1600 1588 1587 1595 1596 1597 1597 1596 1595 1595
1564 1566 1566 1568 1569 1568 1574 1579 1583 1586 1585 1586 1585 1586 1587 1588 1588 1589 1593 1600 1603 1602 1600 1602 1602 1598 1596 1596 1594 1593 1592 1593 1603 1597 1599 1596 1590 1591 1591 1593 1593 1594 1595 1595 1594
1565 1567 1568 1568 1571 1576 1581 1583 1585 1585 1587 1587 1589 1590 1590 1591 1595 1593 1598 1604 1604 1604 1605 1605 1599 1602 1599 1600 1596 1595 1592 1592 1596 1599 1602 1604 1590 1588 1589 1591 1592 1593 1593 1593 1593
1566 1568 1570 1570 1569 1570 1576 1581 1586 1588 1589 1590 1591 1591 1591 1592 1593 1596 1598 1604 1605 1605 1605 1605 1602 1601 1601 1590 1592 1592 1591 1594 1596 1604 1595 1590 1580 1591 1589 1590 1591 1591 1590 1591 1592
1565 1567 1567 1570 1570 1570 1573 1578 1584 1588 1589 1590 1591 1591 1590 1593 1593 1595 1597 1604 1605 1605 1605 1605 1604 1597 1594 1589 1587 1587 1591 1591 1595 1592 1596 1577 1581 1586 1587 1588 1590 1590 1589 1590 1589
1566 1567 1568 1569 1570 1572 1577 1579 1580 1588 1589 1590 1590 1592 1592 1592 1596 1593 1594 1597 1599 1606 1604 1604 1604 1598 1594 1587 1588 1588 1585 1586 1587 1586 1584 1580 1582 1584 1585 1587 1588 1588 1589 1589 1588
1566 1566 1567 1572 1571 1573 1575 1578 1580 1583 1591 1591 1591 1592 1594 1598 1598 1598 1598 1599 1599 1601 1603 1603 1604 1602 1600 1584 1585 1587 1573 1579 1576 1576 1576 1581 1582 1582 1585 1586 1586 1587 1587 1588 1586